Wind_Speed
56 59 61 61 60 60 58 52 47 44 40 38 38 39 41 44 46 48 49 50 51 50 49 48 46 45 43 40 39 37 35 33 28 24 25 27 28 29 29 28 27 26 27
59 61 61 59 59 58 52 47 42 39 37 37 39 42 45 48 50 51 52 52 51 50 48 46 45 43 40 38 36 34 32 30 26 22 23 24 25 26 25 23 22 22 22
61 61 60 59 58 53 46 41 38 37 38 39 42 45 49 51 53 53 53 52 51 48 46 43 42 40 38 35 33 31 29 27 24 21 21 23 23 22 21 20 19 18 18
61 60 58 57 54 46 41 39 38 38 40 43 47 50 53 54 54 53 52 50 48 46 43 41 39 37 34 32 30 28 26 24 22 20 20 20 19 18 16 15 14 14 14
60 57 57 54 47 41 39 38 39 41 44 48 51 53 54 54 53 51 49 47 45 42 40 38 36 33 30 28 26 25 22 20 19 18 17 16 14 13 12 11 10 10 11
57 55 54 48 42 39 38 39 42 46 49 52 54 54 54 53 52 49 47 44 41 39 37 35 32 29 26 24 22 20 19 17 15 15 14 12 11 9 8 8 7 8 9
54 53 48 42 39 38 39 42 46 49 52 53 53 53 53 52 49 46 44 41 38 36 33 30 27 24 21 19 18 16 15 14 12 11 10 9 7 6 6 6 6 6 7
51 47 42 38 37 39 42 46 49 51 52 52 53 52 51 49 47 43 41 38 35 33 30 26 23 20 17 15 14 13 11 10 9 7 6 5 5 5 5 4 3 3 3
46 41 37 36 38 41 45 47 49 51 51 51 51 50 48 46 43 40 37 34 32 30 26 23 19 16 13 11 11 10 9 7 7 6 5 5 6 5 5 4 2 1 2
40 36 35 37 40 43 45 47 48 49 49 49 48 47 44 42 39 36 33 31 29 26 23 19 16 12 9 9 9 9 8 8 8 7 7 7 7 6 6 4 4 4 5
33 33 35 38 41 43 44 45 46 47 47 47 46 44 41 38 35 33 30 27 25 22 19 16 12 7 7 8 10 11 11 11 10 10 10 10 9 8 7 6 6 7 9
31 33 36 39 40 42 43 43 44 44 45 45 43 41 39 36 33 30 27 24 21 18 14 10 7 4 8 11 12 13 14 14 13 13 13 12 11 10 9 9 9 11 14
31 34 37 38 39 40 41 42 42 43 43 43 41 38 36 33 30 27 24 21 17 13 9 5 2 6 11 14 15 16 17 17 16 15 14 12 11 10 11 11 12 15 18
32 35 36 37 38 38 39 40 41 42 41 40 37 34 32 30 27 24 21 17 13 8 4 1 4 10 14 16 18 19 19 18 17 16 15 13 11 11 13 14 16 19 21
32 34 36 36 36 37 37 38 39 40 39 37 34 31 30 27 24 21 17 13 8 4 1 4 8 13 16 18 20 20 20 19 18 17 15 14 13 13 15 17 20 22 24
32 34 35 35 36 36 36 37 38 38 37 35 33 31 28 25 21 17 13 8 5 4 5 7 11 15 17 20 21 21 20 19 19 18 16 15 14 15 17 20 22 24 25
32 33 35 35 36 36 35 36 37 37 37 35 33 30 26 22 17 14 10 7 6 6 7 10 13 16 18 20 21 21 20 19 19 19 18 16 15 17 19 21 23 24 25
32 33 34 35 35 34 34 35 36 37 36 35 32 29 24 19 14 12 10 8 8 8 9 11 14 16 18 20 21 21 20 20 20 19 18 17 17 19 20 21 22 22 22
32 33 33 34 33 33 33 34 35 36 35 34 31 27 23 18 13 11 10 9 9 9 10 12 14 16 18 19 20 21 21 20 20 19 18 17 18 19 20 20 20 20 20
32 33 33 33 33 33 33 33 33 34 33 32 29 25 22 19 14 11 10 9 9 10 11 13 15 16 17 18 19 20 21 21 21 20 19 18 18 19 19 18 18 17 17
32 32 32 32 32 32 31 31 32 32 32 31 29 26 22 19 15 11 9 9 10 10 12 14 15 16 17 17 18 19 20 20 20 20 19 18 18 18 18 17 16 15 14
31 31 31 32 32 31 31 31 30 30 30 30 29 26 23 20 15 12 10 9 9 10 12 13 15 16 16 16 17 18 18 19 20 20 20 19 18 18 16 15 14 13 12
30 31 32 32 32 32 31 30 29 29 28 28 28 26 23 21 17 13 10 9 9 10 11 12 14 15 16 15 15 15 16 17 18 19 20 19 19 18 16 14 13 12 10
31 32 33 33 33 32 30 29 28 27 28 27 27 25 23 22 19 16 13 10 10 10 11 12 13 14 15 15 15 14 15 15 16 18 19 19 19 18 16 14 13 11 10
33 34 34 34 33 32 30 28 27 26 27 27 27 26 24 22 20 18 16 14 12 11 11 12 13 13 14 14 14 13 13 14 15 16 17 18 18 18 17 15 13 12 11
35 36 36 35 33 31 29 27 26 26 26 27 27 27 25 23 21 19 17 16 15 14 13 13 13 14 14 15 14 14 13 13 13 14 15 16 17 17 17 16 15 13 13
Wind_Direction
312 313 312 312 312 312 312 310 310 310 309 309 311 312 313 313 313 313 312 311 309 306 302 298 295 291 287 285 286 286 288 289 288 280 274 272 273 275 277 277 275 271 269
313 313 313 312 312 312 311 309 309 309 310 312 313 314 314 314 314 313 312 311 309 306 302 298 295 292 287 282 282 282 283 285 284 280 276 276 277 277 276 276 271 267 267
313 313 313 312 313 311 308 308 308 309 311 313 314 314 314 314 314 312 311 310 308 305 302 299 296 291 286 281 279 278 279 279 280 278 278 280 281 279 275 272 267 263 264
313 312 312 312 312 309 306 306 308 309 311 313 314 315 315 314 313 312 311 309 307 305 303 300 297 292 285 280 276 274 273 274 274 276 280 282 280 277 272 265 260 261 264
312 312 312 312 310 306 305 306 308 310 312 314 315 316 315 315 313 312 310 308 306 305 304 302 299 293 285 278 272 269 267 268 269 275 281 281 276 273 264 254 252 262 270
312 311 312 310 307 305 306 308 310 312 314 315 316 316 316 315 314 312 310 307 306 305 305 303 301 294 285 276 269 262 260 260 265 273 275 276 268 260 248 239 248 267 278
311 311 310 307 305 306 308 310 313 315 316 317 317 317 317 316 315 313 311 308 307 306 306 304 301 294 284 273 265 257 250 249 258 264 263 262 250 236 225 229 246 268 291
310 310 308 306 306 309 311 313 315 317 318 319 319 319 318 318 317 315 313 309 307 308 307 305 300 293 282 266 255 246 239 239 245 240 236 226 210 200 196 206 237 274 311
309 308 306 307 310 312 314 316 319 320 321 321 320 320 320 319 318 317 314 311 309 308 307 306 299 290 276 254 238 227 219 216 207 199 197 179 167 169 175 185 197 176 58
308 306 308 310 313 316 318 320 322 323 323 322 322 322 322 321 320 319 317 314 311 309 307 305 301 287 261 229 211 199 191 183 176 169 159 150 148 149 157 159 149 125 106
306 308 311 314 317 320 322 324 325 325 325 325 324 324 324 323 323 322 321 319 316 312 307 304 301 276 222 193 184 174 166 161 155 150 144 139 139 142 146 145 136 124 115
308 312 316 319 322 325 327 328 328 328 328 328 328 328 327 326 326 325 324 322 320 316 310 304 295 229 178 167 163 159 154 150 145 139 136 133 136 140 142 139 131 125 121
313 317 321 324 327 330 331 332 332 332 332 332 331 330 329 329 328 328 328 326 324 321 314 301 257 172 157 153 152 151 149 144 140 136 133 132 134 138 140 135 130 129 126
317 322 326 330 333 335 336 336 336 336 335 335 334 334 334 333 332 332 332 331 329 329 325 270 162 153 150 150 150 149 148 145 140 136 133 133 134 134 135 133 131 131 130
323 328 332 336 339 339 339 339 339 339 339 339 339 338 338 337 336 335 336 338 340 349 58 136 145 147 147 149 151 151 149 145 141 138 135 135 134 133 133 132 132 131 132
330 335 338 341 342 342 342 342 343 344 345 346 345 344 343 341 342 345 350 0 23 62 106 130 140 143 145 149 151 153 150 147 144 141 138 136 134 133 133 134 134 133 133
337 341 343 344 344 344 345 347 348 349 350 352 352 352 351 352 356 4 17 38 59 85 106 124 136 140 144 149 152 153 153 151 150 147 143 140 136 135 135 136 138 138 139
344 346 346 346 347 347 349 350 352 353 355 356 357 359 1 4 13 23 35 55 74 91 106 121 133 140 143 148 153 155 156 156 155 153 150 145 139 137 136 138 140 141 143
349 350 349 350 350 351 351 352 355 357 359 0 2 5 9 15 24 35 46 65 78 92 106 119 131 139 145 149 154 157 159 159 160 159 155 150 145 142 140 140 141 143 144
353 353 353 354 354 354 354 356 358 1 3 5 8 11 15 22 30 43 55 69 80 96 110 118 127 136 144 150 155 159 161 162 163 163 160 156 152 148 146 144 142 143 146
356 357 357 358 357 357 359 1 3 5 7 10 13 17 20 25 34 46 60 75 83 98 113 119 125 133 141 149 155 160 164 166 167 168 166 163 159 156 153 150 147 144 146
0 1 1 0 0 1 3 4 6 8 11 13 16 20 24 29 36 47 62 78 86 97 116 124 126 131 138 146 154 160 164 168 170 171 171 170 168 164 160 156 153 150 150
5 4 4 3 4 4 5 7 9 12 14 17 20 23 27 31 37 45 60 77 85 93 111 125 129 132 135 141 149 155 161 166 171 173 174 173 172 171 169 166 163 161 160
10 9 7 6 6 7 8 10 13 16 19 21 23 26 30 34 39 47 59 76 86 92 105 121 130 134 136 137 141 146 152 160 167 173 176 177 177 177 177 177 178 176 173
14 13 11 9 9 10 12 15 17 21 23 26 28 31 34 38 43 49 59 70 82 89 100 115 125 129 132 133 134 137 144 150 158 166 172 176 179 182 184 187 190 190 186
18 16 14 13 13 14 17 20 23 26 29 31 32 35 38 42 45 50 57 67 75 81 91 106 117 123 126 128 129 131 135 140 147 156 165 173 179 183 187 191 193 193 192
Height
5751 5742 5734 5726 5717 5708 5699 5691 5683 5676 5669 5663 5657 5651 5644 5637 5630 5623 5616 5608 5600 5593 5586 5581 5575 5571 5567 5564 5561 5558 5555 5553 5553 5552 5549 5548 5546 5546 5545 5544 5543 5542 5541
5739 5731 5723 5714 5706 5697 5689 5682 5675 5668 5661 5655 5649 5642 5635 5628 5620 5612 5604 5595 5588 5580 5573 5567 5562 5558 5554 5552 5550 5548 5546 5545 5544 5544 5542 5541 5540 5538 5538 5537 5536 5535 5534
5728 5720 5712 5703 5695 5687 5680 5673 5667 5660 5654 5647 5640 5633 5625 5617 5608 5599 5591 5582 5574 5567 5561 5555 5550 5546 5542 5541 5540 5539 5538 5537 5537 5537 5536 5534 5533 5532 5531 5530 5529 5529 5528
5717 5709 5701 5694 5686 5678 5671 5665 5659 5652 5646 5638 5631 5623 5614 5604 5595 5586 5578 5569 5561 5554 5548 5543 5538 5534 5531 5530 5530 5529 5530 5530 5530 5530 5529 5528 5527 5526 5525 5525 5524 5524 5523
5707 5699 5691 5684 5676 5669 5663 5657 5651 5644 5636 5629 5620 5611 5601 5592 5583 5574 5565 5557 5549 5543 5537 5532 5527 5524 5521 5520 5521 5521 5522 5523 5523 5523 5523 5522 5522 5521 5521 5521 5521 5521 5520
5696 5689 5681 5674 5667 5661 5655 5649 5642 5634 5626 5617 5608 5598 5588 5579 5570 5561 5553 5545 5539 5533 5528 5522 5518 5514 5513 5512 5512 5514 5515 5516 5517 5518 5518 5518 5518 5518 5518 5518 5519 5519 5517
5687 5679 5672 5665 5659 5653 5647 5640 5632 5624 5615 5605 5596 5586 5577 5567 5558 5550 5541 5534 5529 5524 5519 5514 5510 5507 5505 5505 5506 5508 5509 5511 5512 5513 5514 5514 5515 5515 5516 5517 5517 5517 5515
5678 5671 5664 5658 5652 5646 5639 5631 5622 5613 5603 5594 5584 5574 5565 5556 5547 5539 5531 5524 5519 5515 5510 5507 5503 5501 5499 5500 5501 5503 5505 5506 5508 5509 5510 5512 5513 5514 5515 5516 5516 5515 5514
5670 5664 5657 5652 5645 5638 5631 5622 5612 5602 5592 5583 5573 5564 5554 5545 5537 5530 5523 5516 5511 5507 5503 5500 5497 5495 5495 5495 5497 5499 5501 5503 5505 5507 5509 5510 5512 5513 5515 5516 5516 5515 5514
5663 5657 5652 5646 5639 5631 5622 5612 5602 5592 5583 5573 5563 5554 5545 5537 5529 5522 5515 5509 5504 5500 5496 5494 5492 5491 5491 5492 5494 5496 5499 5501 5504 5506 5508 5510 5512 5514 5515 5516 5516 5516 5516
5657 5652 5646 5639 5631 5622 5613 5603 5593 5584 5574 5564 5555 5545 5537 5529 5521 5515 5508 5502 5497 5494 5491 5489 5488 5487 5488 5489 5492 5495 5498 5501 5503 5506 5508 5510 5513 5515 5516 5517 5517 5518 5518
5653 5647 5640 5633 5624 5614 5605 5595 5586 5576 5566 5556 5546 5537 5529 5521 5515 5508 5502 5497 5493 5489 5487 5485 5485 5485 5486 5488 5491 5494 5498 5501 5504 5507 5509 5512 5514 5516 5517 5518 5519 5520 5521
5648 5641 5634 5625 5616 5607 5598 5588 5579 5569 5559 5549 5540 5531 5523 5515 5509 5503 5498 5493 5489 5486 5484 5483 5483 5484 5486 5489 5492 5495 5499 5502 5506 5509 5512 5514 5516 5517 5519 5520 5521 5522 5524
5643 5636 5627 5619 5610 5601 5592 5582 5573 5563 5554 5544 5535 5526 5518 5511 5504 5499 5494 5490 5487 5484 5483 5483 5483 5484 5487 5490 5493 5497 5500 5504 5508 5511 5514 5516 5518 5519 5521 5522 5524 5526 5529
5638 5630 5622 5613 5605 5596 5587 5578 5569 5559 5549 5540 5531 5522 5514 5507 5501 5496 5491 5488 5485 5483 5483 5483 5484 5486 5488 5492 5495 5499 5503 5506 5510 5513 5516 5518 5520 5522 5524 5526 5528 5530 5533
5632 5624 5616 5608 5600 5592 5583 5574 5565 5556 5546 5536 5527 5518 5511 5504 5499 5494 5490 5487 5485 5484 5484 5484 5486 5488 5490 5494 5497 5502 5505 5509 5513 5516 5519 5521 5523 5525 5527 5530 5532 5535 5538
5628 5620 5612 5604 5596 5588 5579 5571 5562 5553 5543 5534 5525 5516 5509 5502 5498 5494 5491 5488 5487 5486 5486 5487 5488 5490 5493 5496 5500 5504 5508 5512 5516 5519 5522 5525 5527 5529 5531 5534 5537 5540 5543
5624 5616 5609 5601 5593 5585 5577 5569 5560 5551 5542 5532 5524 5516 5509 5503 5499 5495 5493 5491 5490 5489 5489 5490 5491 5493 5496 5499 5503 5506 5511 5515 5519 5522 5525 5528 5531 5533 5536 5538 5541 5544 5547
5621 5614 5606 5599 5591 5583 5575 5567 5558 5550 5541 5532 5524 5517 5510 5505 5501 5498 5496 5494 5493 5492 5492 5493 5494 5496 5499 5502 5505 5509 5513 5517 5521 5524 5528 5531 5534 5537 5540 5543 5545 5548 5551
5619 5612 5605 5597 5589 5582 5574 5566 5558 5550 5541 5533 5526 5518 5512 5507 5503 5501 5499 5497 5496 5496 5496 5496 5497 5499 5502 5505 5508 5511 5515 5519 5523 5527 5531 5534 5537 5540 5543 5546 5549 5552 5555
5618 5611 5604 5596 5589 5581 5573 5566 5558 5550 5542 5535 5527 5520 5515 5510 5506 5503 5502 5501 5500 5499 5499 5500 5501 5502 5505 5507 5511 5514 5518 5521 5525 5529 5533 5537 5540 5543 5546 5549 5552 5555 5557
5618 5611 5604 5597 5589 5581 5573 5566 5558 5551 5544 5537 5530 5523 5518 5513 5509 5507 5505 5504 5503 5503 5502 5503 5504 5506 5508 5510 5513 5516 5520 5523 5527 5531 5535 5539 5542 5546 5549 5552 5555 5557 5560
5619 5612 5604 5597 5589 5581 5573 5566 5560 5553 5546 5540 5533 5527 5521 5517 5513 5510 5508 5507 5506 5506 5506 5507 5508 5509 5511 5514 5516 5519 5522 5525 5529 5533 5537 5540 5544 5548 5551 5554 5557 5559 5561
5620 5613 5605 5597 5589 5581 5574 5568 5561 5555 5549 5543 5536 5531 5525 5521 5517 5514 5512 5510 5510 5510 5509 5510 5511 5513 5515 5517 5519 5522 5524 5527 5530 5534 5538 5542 5545 5549 5552 5555 5558 5560 5562
5621 5614 5606 5598 5590 5582 5576 5569 5563 5558 5552 5546 5540 5535 5530 5525 5522 5519 5516 5515 5514 5513 5513 5514 5515 5516 5518 5520 5522 5524 5527 5529 5532 5535 5538 5542 5546 5549 5553 5555 5558 5561 5563
5623 5616 5608 5600 5592 5584 5578 5572 5566 5561 5556 5550 5545 5540 5535 5530 5527 5524 5521 5520 5519 5518 5518 5518 5519 5520 5522 5524 5526 5528 5530 5532 5534 5537 5540 5543 5546 5549 5552 5555 5558 5561 5564